DW5858 Weather Reports


Display with metric or nautical units.
time (UTC)temp
F
wind
direction
speed
MPH
gust
MPH
rain 1hr
in
rain 24hr
in
rain mn
in
humidity
%
barometer
mb
20220705013005 91 76 2.0 6.0 0.00 0.39 0.00 63 1010.9
20220705012503 92 76 2.0 6.0 0.00 0.39 0.00 61 1010.8
20220705011505 92 76 2.0 5.0 0.00 0.39 0.00 62 1010.8
20220705011004 92 76 2.0 5.0 0.00 0.39 0.00 61 1010.8
20220705010005 93 77 1.0 5.0 0.00 0.39 0.00 61 1010.8
20220705005004 93 76 2.0 5.0 0.00 0.39 0.00 60 1010.8
20220705004505 93 76 2.0 6.0 0.00 0.39 0.00 60 1010.7
20220705003504 93 76 3.0 6.0 0.00 0.39 0.00 60 1010.7
20220705003005 93 76 3.0 10.0 0.00 0.39 0.00 60 1010.7
20220705002504 93 76 3.0 10.0 0.00 0.39 0.00 59 1010.6
20220705002004 93 76 3.0 8.0 0.00 0.39 0.00 59 1010.5
20220705001003 93 76 4.0 11.0 0.00 0.39 0.00 57 1010.3
20220704234504 95 76 5.0 11.0 0.00 0.39 0.39 56 1010.1
20220704234004 95 77 6.0 13.0 0.00 0.39 0.39 56 1010.1
20220704233005 95 76 4.0 9.0 0.00 0.39 0.39 58 1010.2
20220704232504 95 76 5.0 9.0 0.00 0.39 0.39 56 1010.3
20220704230504 96 76 4.0 10.0 0.00 0.39 0.39 55 1010.6
20220704230005 96 76 4.0 10.0 0.00 0.39 0.39 54 1010.7
20220704225003 96 76 3.0 8.0 0.00 0.39 0.39 55 1010.8
20220704223005 96 76 3.0 11.0 0.00 0.39 0.39 54 1010.9
20220704220005 96 76 4.0 14.0 0.00 0.39 0.39 57 1010.8
20220704215504 95 76 4.0 11.0 0.00 0.39 0.39 55 1010.9
20220704215004 95 76 3.0 8.0 0.00 0.39 0.39 56 1010.8
20220704213504 96 76 4.0 14.0 0.00 0.39 0.39 55 1010.9
20220704210504 96 76 5.0 13.0 0.00 0.39 0.39 53 1011.0
20220704210005 96 76 4.0 10.0 0.00 0.39 0.39 53 1011.0
20220704205503 96 76 4.0 10.0 0.00 0.39 0.39 52 1010.9
20220704205003 96 76 5.0 14.0 0.00 0.39 0.39 53 1010.9
20220704203503 96 77 7.0 20.0 0.00 0.39 0.39 52 1010.9
20220704203005 95 76 7.0 20.0 0.00 0.39 0.39 53 1010.9
20220704202504 95 77 8.0 18.0 0.00 0.39 0.39 55 1010.9
20220704202004 95 76 8.0 18.0 0.00 0.39 0.39 53 1010.8
20220704200504 94 76 7.0 17.0 0.00 0.39 0.39 54 1010.8
20220704195503 94 76 8.0 15.0 0.00 0.39 0.39 54 1010.8
20220704194004 94 76 6.0 14.0 0.00 0.39 0.39 55 1011.0
20220704193504 93 76 6.0 19.0 0.00 0.39 0.39 57 1011.1
20220704192503 92 77 6.0 18.0 0.00 0.39 0.39 57 1011.0
20220704192003 92 77 6.0 21.0 0.00 0.39 0.39 59 1011.1
20220704191003 93 76 5.0 16.0 0.00 0.39 0.39 57 1011.2
20220704190503 93 77 6.0 16.0 0.00 0.39 0.39 56 1011.3
20220704184505 92 76 5.0 13.0 0.00 0.39 0.39 59 1011.8
20220704183504 92 77 7.0 15.0 0.00 0.39 0.39 57 1011.6
20220704183005 92 76 6.0 15.0 0.00 0.39 0.39 58 1011.5
20220704182503 91 77 6.0 16.0 0.00 0.39 0.39 61 1011.6
20220704181505 91 76 7.0 24.0 0.00 0.39 0.39 59 1011.7
20220704181004 91 77 6.0 16.0 0.00 0.39 0.39 60 1011.6
20220704180504 91 77 7.0 16.0 0.00 0.39 0.39 60 1011.6
20220704180005 91 76 7.0 16.0 0.00 0.39 0.39 62 1011.6
20220704175004 90 76 5.0 13.0 0.00 0.39 0.39 63 1011.8
20220704174505 90 77 6.0 13.0 0.00 0.39 0.39 66 1012.0
20220704174003 90 76 8.0 14.0 0.00 0.39 0.39 63 1011.9
20220704173005 89 76 6.0 15.0 0.00 0.39 0.39 65 1012.0
20220704171505 88 76 6.0 16.0 0.00 0.39 0.39 67 1012.1
20220704171004 87 76 5.0 14.0 0.00 0.39 0.39 68 1012.1
20220704170504 87 76 4.0 14.0 0.00 0.39 0.39 68 1012.2
20220704165004 86 77 6.0 12.0 0.00 0.39 0.39 71 1012.0
20220704164003 85 76 5.0 11.0 0.00 0.39 0.39 74 1012.1
20220704162004 82 77 5.0 11.0 0.00 0.39 0.39 76 1012.4
20220704161003 81 76 4.0 11.0 0.00 0.39 0.39 77 1012.4
20220704155503 81 76 5.0 11.0 0.00 0.39 0.39 78 1012.2
20220704155004 80 76 5.0 11.0 0.00 0.39 0.39 79 1012.4
20220704154505 80 76 3.0 10.0 0.00 0.39 0.39 79 1012.4
20220704154003 80 76 3.0 10.0 0.00 0.39 0.39 80 1012.3
20220704153504 79 76 3.0 10.0 0.00 0.39 0.39 80 1012.3
20220704145004 78 77 5.0 11.0 0.00 0.39 0.39 83 1012.5
20220704144505 78 77 7.0 14.0 0.00 0.39 0.39 83 1012.3
20220704144004 77 77 7.0 14.0 0.00 0.39 0.39 83 1012.4
20220704143005 77 76 8.0 17.0 0.00 0.39 0.39 84 1012.4
20220704142503 77 76 9.0 18.0 0.00 0.39 0.39 84 1012.4
20220704141505 76 76 8.0 19.0 0.00 0.39 0.39 86 1012.2
20220704141003 76 76 8.0 19.0 0.00 0.39 0.39 86 1012.3
20220704140504 76 76 9.0 19.0 0.00 0.39 0.39 86 1012.3
20220704140005 75 76 10.0 19.0 0.00 0.39 0.39 86 1012.2
20220704135004 75 76 8.0 18.0 0.00 0.39 0.39 87 1012.2
20220704134505 75 77 7.0 18.0 0.00 0.39 0.39 88 1012.4
20220704133504 75 76 5.0 14.0 0.00 0.39 0.39 89 1012.5
20220704132503 74 76 5.0 10.0 0.00 0.39 0.39 90 1012.8
20220704131004 74 76 4.0 10.0 0.00 0.39 0.39 90 1013.3
20220704130504 74 76 4.0 12.0 0.00 0.39 0.39 91 1013.2
20220704125504 74 76 4.0 12.0 0.00 0.39 0.39 92 1013.3
20220704123504 73 76 4.0 9.0 0.00 0.39 0.39 92 1013.8
20220704122004 73 76 1.0 4.0 0.00 0.39 0.39 92 1014.2
20220704121505 73 77 0.0 2.0 0.00 0.39 0.39 92 1014.4
20220704121004 73 76 1.0 3.0 0.01 0.39 0.39 91 1014.6
20220704120503 73 76 2.0 4.0 0.01 0.39 0.39 91 1014.4
20220704120005 72 76 2.0 4.0 0.01 0.39 0.39 91 1014.0
20220704112503 72 77 1.0 4.0 0.02 0.39 0.39 91 1014.3
20220704105003 72 76 1.0 3.0 0.04 0.38 0.38 91 1014.7
20220704103504 72 76 1.0 4.0 0.07 0.38 0.38 91 1014.6
20220704103005 72 76 1.0 4.0 0.08 0.38 0.38 91 1014.8
20220704101505 72 76 2.0 3.0 0.09 0.37 0.37 91 1015.2
20220704092503 71 77 2.0 5.0 0.20 0.29 0.29 89 1015.1
20220704091505 71 76 4.0 9.0 0.20 0.28 0.28 88 1014.5
20220704091004 71 76 5.0 11.0 0.21 0.28 0.28 88 1014.2
20220704085504 72 77 6.0 13.0 0.10 0.13 0.13 85 1015.4
20220704083504 72 76 4.0 11.0 0.10 0.10 0.10 84 1015.3
20220704081004 77 76 4.0 20.0 0.07 0.07 0.07 85 1015.2
20220704080005 78 76 4.0 9.0 0.04 0.04 0.04 85 1015.5
20220704075504 79 76 4.0 9.0 0.03 0.03 0.03 84 1015.4
20220704074004 80 76 5.0 14.0 0.01 0.01 0.01 81 1015.2
20220704072003 81 77 6.0 11.0 0.00 0.00 0.00 78 1015.2
20220704071504 81 77 6.0 11.0 0.00 0.00 0.00 78 1015.3
20220704070504 81 76 5.0 11.0 0.00 0.00 0.00 78 1015.3
20220704065504 81 76 5.0 11.0 0.00 0.00 0.00 78 1015.2
20220704065004 81 76 5.0 11.0 0.00 0.00 0.00 78 1015.0
20220704064004 81 76 5.0 10.0 0.00 0.00 0.00 78 1014.8
20220704063503 81 76 5.0 10.0 0.00 0.00 0.00 78 1014.7
20220704062004 81 77 5.0 11.0 0.00 0.00 0.00 78 1014.7
20220704061505 81 76 4.0 11.0 0.00 0.00 0.00 78 1014.8
20220704060503 81 77 4.0 2.0 0.00 0.00 0.00 78 1014.8